Starlink 3930

operational
NORAD ID: 52568 Int'l Des: 2022-051 Owner: SPXS Country: US Constellation: starlink
LEOCIRCULAR

关于 Starlink 3930

正在加载描述...

实时位置

正在加载3D地球...

即将过境

高度历史

Altitude vs Time

uPlot chart will show altitude changes over time

两行轨道根数

1 52568U 22051AM 25306.44543348 .00000349 00000-0 40031-4 0 9995
2 52568 53.2176 330.3431 0001563 84.4149 275.7022 15.08838290192375
Epoch: Nov 2, 2025 • Age: 16 hours

当前状态

高度 544.8 km
速度 7.60 km/s
星下点 51.07°N, 52.15°W
发射日期 May 13, 2022
运行时间 3.4 years
类型 internet

技术详情

分类 Payload
质量 297.00 kg
干质量 275.00 kg
总质量 297.00 kg
长度 0.20 m
直径 2.80 m
跨度 9.00 m
形状 Box + pan
制造商 SPXS
平台类型 Starlink
阶段状态 In Orbit
所有者/国家 SPXS/US

大型星座

Loading constellations...